This is the latest recevied weather packets stored in our database for station/object W5GGH. If no packets are shown the sender has not sent any weather packets the latest 1 day(s).
| Time | Temp. | Humidity | Pressure | Rain* | Wind** | Luminosity | Snow |
|---|---|---|---|---|---|---|---|
| 1778041964 | 18.89° C | 73% | 1026.4 hPa | 0 mm | 1.34 m/s, 4° | 0 W/m² | - |
| 1778041663 | 18.89° C | 73% | 1026.2 hPa | 0 mm | 1.34 m/s, 28° | 0 W/m² | - |
| 1778041361 | 19.44° C | 73% | 1026.5 hPa | 0 mm | 2.24 m/s, 304° | 0 W/m² | - |
| 1778041059 | 19.44° C | 72% | 1026.2 hPa | 0 mm | 0.89 m/s, 43° | 0 W/m² | - |
| 1778040756 | 19.44° C | 72% | 1026.4 hPa | 0 mm | 0.89 m/s, 6° | 0 W/m² | - |
| 1778040453 | 19.44° C | 71% | 1026.5 hPa | 0 mm | 0.89 m/s, 8° | 0 W/m² | - |
| 1778040150 | 20° C | 71% | 1026.2 hPa | 0 mm | 1.79 m/s, 54° | 0 W/m² | - |
| 1778039847 | 20° C | 71% | 1026.3 hPa | 0 mm | 3.13 m/s, 45° | 0 W/m² | - |
| 1778039544 | 20° C | 70% | 1026.3 hPa | 0 mm | 1.79 m/s, 322° | 0 W/m² | - |
| 1778039241 | 20° C | 70% | 1025.9 hPa | 0 mm | 1.34 m/s, 26° | 0 W/m² | - |
| 1778038938 | 20° C | 70% | 1025.7 hPa | 0 mm | 0.89 m/s, 354° | 0 W/m² | - |
| 1778038635 | 20° C | 69% | 1025.6 hPa | 0 mm | 1.34 m/s, 22° | 0 W/m² | - |
| 1778038332 | 20.56° C | 69% | 1025.6 hPa | 0 mm | 0.89 m/s, 17° | 0 W/m² | - |
| 1778038029 | 20.56° C | 69% | 1025.7 hPa | 0 mm | 2.24 m/s, 15° | 0 W/m² | - |
| 1778037726 | 20.56° C | 69% | 1025.5 hPa | 0 mm | 1.79 m/s, 10° | 0 W/m² | - |
| 1778037422 | 20.56° C | 69% | 1025.3 hPa | 0 mm | 0.45 m/s, 6° | 0 W/m² | - |
| 1778037120 | 20.56° C | 69% | 1025.1 hPa | 0 mm | 1.34 m/s, 32° | 0 W/m² | - |
| 1778036818 | 20.56° C | 69% | 1024.8 hPa | 0 mm | 2.68 m/s, 29° | 0 W/m² | - |
| 1778036515 | 20.56° C | 69% | 1024.9 hPa | 0 mm | 1.34 m/s, 343° | 0 W/m² | - |
| 1778036211 | 21.11° C | 68% | 1024.8 hPa | 0 mm | 1.79 m/s, 35° | 0 W/m² | - |
| 1778035908 | 21.11° C | 68% | 1024.6 hPa | 0 mm | 1.34 m/s, 16° | 0 W/m² | - |
| 1778035606 | 21.11° C | 68% | 1024.8 hPa | 0 mm | 0.89 m/s, 29° | 0 W/m² | - |
| 1778035302 | 21.11° C | 68% | 1024.8 hPa | 0 mm | 1.34 m/s, 324° | 0 W/m² | - |
| 1778034998 | 21.11° C | 68% | 1024.6 hPa | 0 mm | 1.79 m/s, 316° | 0 W/m² | - |
| 1778034695 | 21.67° C | 67% | 1024.4 hPa | 0 mm | 1.79 m/s, 348° | 0 W/m² | - |
* Rain latest hour (hover to see other rain measurements)
** Current wind speed in m/s (hover to see current wind gust speed)